[[{"header":{"parameterUnit":"m.s-1","parameterCategory":1,"la1":30.2991,"la2":30.254,"lo1":-89.0895,"lo2":-89.0444,"dy":0.0017,"dx":0.0017,"nx":28,"ny":28,"refTime":"2024-07-29T03:00:00:Z","depth":0,"parameterNumber":2,"parameterNumberName":"U-component_of_WINDS"},"data":[0,0,0,0,0,0,0,0,0,0,0,0,0,0,0,0,0,0,0,0,0,0,0,0,0,0,0,0,0,0,0,0,0,0,0,0,0,0,0,0,0,0,0,0,0,0,0,0,0,0,0,0,0,0,0,0,0,0,0.1844,0.1844,0,0.1902,0.1902,0.1903,0.192,0.192,0.1919,0.1919,0.1984,0.1986,0.1988,0,0,0,0,0,0,0,0,0,0,0,0,0,0.1751,0.1752,0.1844,0.1844,0.1845,0.1901,0.1902,0.1903,0.192,0.192,0.1919,0.1919,0.1983,0.1985,0.1988,0,0,0,0,0,0,0,0,0,0,0,0,0,0.1798,0.1753,0.1843,0.186,0.1862,0.1901,0.1902,0.1903,0.192,0.1919,0.1919,0.1919,0.1982,0.1985,0.1988,0.2017,0,0,0.1997,0.1999,0,0,0,0,0,0,0,0,0.1796,0.1802,0.1857,0.1859,0.1861,0.1903,0.1893,0.1941,0.192,0.1898,0.1919,0.1918,0.1957,0.1962,0.1975,0.202,0.2022,0.1998,0.1999,0.2001,0.2002,0,0,0,0,0,0,0,0.1792,0.1799,0.1867,0.1858,0.186,0.1866,0.1872,0.1903,0.193,0.19,0.1901,0.1908,0.1959,0.1972,0.1976,0.2023,0.1997,0.2,0.2002,0.2003,0.2093,0.2094,0,0,0,0,0,0,0.1785,0.1796,0.1865,0.1868,0.1826,0.1868,0.1875,0.189,0.193,0.1935,0.1908,0.1908,0.1967,0.1973,0.1979,0.2014,0.2001,0.2004,0.2005,0.2093,0.2094,0.2094,0,0,0,0,0,0,0.1783,0.1791,0.1862,0.1833,0.1842,0.187,0.1887,0.1892,0.1905,0.1936,0.1941,0.1916,0.1967,0.1974,0.2006,0.2016,0.2005,0.2008,0.2092,0.2093,0.2094,0.2085,0,0,0,0,0,0,0.1781,0.1791,0.1801,0.1833,0.1844,0.1888,0.1888,0.1893,0.1909,0.191,0.1945,0.195,0.1967,0.2002,0.2009,0.202,0.201,0.2091,0.2093,0.2094,0.2085,0.2085,0.2086,0,0,0,0,0,0.1777,0.1798,0.1801,0.181,0.1857,0.1889,0.1895,0.1912,0.191,0.1921,0.1941,0.1949,0.2014,0.2005,0.2014,0.2026,0.2091,0.2092,0.2094,0.2084,0.2085,0.2086,0,0,0,0,0,0,0.1768,0.1802,0.1807,0.1838,0.186,0.1891,0.1906,0.1913,0.1938,0.1938,0.196,0.1968,0.1998,0.2015,0.2005,0.2055,0.2053,0.2056,0.2043,0.2044,0.2045,0.204,0.2013,0,0,0,0,0,0.1769,0.1791,0.182,0.1844,0.1855,0.1878,0.1893,0.1904,0.1929,0.1939,0.1961,0.1986,0.2012,0.2029,0.2055,0.2087,0.2095,0.2099,0.21,0.2101,0.2103,0.2121,0.2123,0.2098,0.2098,0.2098,0,0,0.1773,0.1794,0.1807,0.1843,0.1862,0.1884,0.1887,0.1911,0.1928,0.1943,0.1974,0.1991,0.2021,0.2052,0.2068,0.2068,0.2112,0.2102,0.2102,0.2105,0.2123,0.2125,0.2127,0.2099,0.2099,0.2099,0,0,0.1791,0.1809,0.1831,0.1849,0.1876,0.1891,0.1896,0.1926,0.1937,0.1968,0.198,0.2001,0.2046,0.2066,0.2082,0.2105,0.2113,0.2113,0.2118,0.2134,0.2136,0.2138,0.2146,0.2149,0.2115,0.2115,0.2115,0,0.1793,0.1826,0.1842,0.1865,0.188,0.1892,0.1915,0.1932,0.1967,0.1978,0.1977,0.2032,0.2053,0.2089,0.2094,0.2107,0.2114,0.2109,0.2135,0.2137,0.2139,0.2147,0.215,0.2115,0.2115,0.2115,0.2115,0,0.1826,0.1849,0.1864,0.1895,0.1912,0.1935,0.1955,0.1971,0.198,0.1995,0.2026,0.2051,0.2081,0.2091,0.2101,0.2128,0.2127,0.213,0.2128,0.214,0.2148,0.2152,0.2115,0.2115,0.2115,0.2115,0,0,0.1842,0.1879,0.1885,0.1898,0.1928,0.1947,0.197,0.1998,0.2011,0.2034,0.2055,0.2091,0.2093,0.2111,0.2123,0.2138,0.2154,0.2139,0.214,0.2141,0.2186,0.2183,0.2187,0.216,0.216,0.2161,0.2183,0,0.1864,0.1904,0.1918,0.1952,0.1973,0.1984,0.2005,0.2026,0.204,0.2061,0.2078,0.2103,0.2104,0.2115,0.213,0.2149,0.2164,0.2148,0.218,0.2181,0.2172,0.2191,0.2189,0.2209,0.2186,0.2187,0.2187,0,0.1895,0.1916,0.1951,0.1977,0.1987,0.2005,0.2031,0.205,0.2074,0.2084,0.2103,0.2114,0.2139,0.2135,0.2171,0.2159,0.2173,0.2185,0.2186,0.219,0.2185,0.2196,0.2216,0.2219,0.2192,0.2192,0.2192,0,0.1902,0.194,0.1966,0.1977,0.2008,0.202,0.2034,0.2058,0.2073,0.2096,0.2106,0.2132,0.2147,0.2167,0.2185,0.218,0.2219,0.2217,0.2228,0.2228,0.2237,0.2236,0.226,0.2245,0.2245,0.2245,0.2245,0,0.1925,0.1947,0.1969,0.1985,0.2009,0.2025,0.2049,0.2064,0.2084,0.2103,0.2115,0.2134,0.2156,0.2177,0.2191,0.2218,0.2225,0.2234,0.2238,0.2233,0.2232,0.2243,0.2243,0.2246,0.2246,0.2245,0.2245,0,0.1938,0.1954,0.1983,0.2009,0.2016,0.2032,0.2055,0.2072,0.2086,0.211,0.2117,0.214,0.2166,0.2185,0.2219,0.2229,0.2258,0.2261,0.2249,0.2251,0.2261,0.226,0.2293,0.2298,0.228,0.228,0.228,0,0.1952,0.1968,0.1995,0.2008,0.2021,0.2042,0.2057,0.2073,0.2089,0.2116,0.2129,0.2155,0.2177,0.2217,0.2238,0.2264,0.2268,0.2278,0.2273,0.2267,0.2269,0.2267,0.2269,0.2279,0.2279,0.2279,0.2279,0,0.1975,0.1981,0.2001,0.2024,0.2041,0.206,0.2079,0.209,0.211,0.2126,0.2151,0.2168,0.2201,0.2227,0.2254,0.227,0.2278,0.2281,0.2285,0.2281,0.2273,0.2277,0.2251,0.228,0.228,0.228,0.228,0.228,0.1988,0.2003,0.2024,0.2046,0.2061,0.2079,0.2095,0.211,0.2131,0.2158,0.2166,0.2192,0.2215,0.2253,0.2268,0.2289,0.229,0.2296,0.2297,0.2299,0.2298,0.2268,0.2295,0.2295,0.2295,0.2295,0.2295,0,0.2012,0.2025,0.2045,0.207,0.2087,0.2091,0.2113,0.2127,0.2149,0.2169,0.2189,0.2218,0.2243,0.2264,0.229,0.2303,0.2307,0.2309,0.2309,0.2312,0.2296,0.229,0.2305,0.2305,0.2305,0.2305,0.2305,0.2305,0.2026,0.205,0.2059,0.2091,0.2105,0.2129,0.214,0.2157,0.2172,0.2203,0.2223,0.2236,0.2257,0.2284,0.2306,0.2312,0.2321,0.2322,0.2329,0.2314,0.2313,0.2312,0.2306,0.2324,0.2324,0.2343,0.2343,0.2343]},{"header":{"parameterUnit":"m.s-1","parameterCategory":1,"la1":30.2991,"la2":30.254,"lo1":-89.0895,"lo2":-89.0444,"dy":0.0017,"dx":0.0017,"nx":28,"ny":28,"refTime":"2024-07-29T03:00:00:Z","depth":0,"parameterNumber":3,"parameterNumberName":"V-component_of_WINDS"},"data":[0,0,0,0,0,0,0,0,0,0,0,0,0,0,0,0,0,0,0,0,0,0,0,0,0,0,0,0,0,0,0,0,0,0,0,0,0,0,0,0,0,0,0,0,0,0,0,0,0,0,0,0,0,0,0,0,0,0,3.3544,3.3543,0,3.3534,3.3533,3.3533,3.3483,3.3482,3.3481,3.348,3.347,3.3471,3.3471,0,0,0,0,0,0,0,0,0,0,0,0,0,3.352,3.352,3.3544,3.3543,3.3543,3.3534,3.3533,3.3533,3.3483,3.3482,3.348,3.3479,3.3469,3.347,3.3471,0,0,0,0,0,0,0,0,0,0,0,0,0,3.3522,3.3521,3.3544,3.3517,3.3515,3.3534,3.3533,3.3533,3.3484,3.3482,3.348,3.3478,3.3469,3.347,3.3472,3.3515,0,0,3.3475,3.3476,0,0,0,0,0,0,0,0,3.3522,3.3523,3.3521,3.3519,3.3516,3.3508,3.3521,3.3527,3.3484,3.3495,3.348,3.3477,3.3484,3.3484,3.3486,3.3515,3.3514,3.3476,3.3476,3.3477,3.3477,0,0,0,0,0,0,0,3.3522,3.3523,3.354,3.3521,3.3518,3.3506,3.3504,3.3522,3.35,3.3494,3.3491,3.349,3.3482,3.3485,3.3485,3.3514,3.3476,3.3477,3.3477,3.3478,3.3578,3.358,0,0,0,0,0,0,3.3525,3.3523,3.354,3.3539,3.3515,3.3508,3.3506,3.3512,3.3499,3.3496,3.3492,3.3488,3.3483,3.3484,3.3485,3.3535,3.3477,3.3478,3.3479,3.3576,3.3578,3.358,0,0,0,0,0,0,3.3525,3.3527,3.354,3.353,3.3531,3.351,3.3518,3.3513,3.3515,3.3497,3.3493,3.3498,3.3482,3.3483,3.3508,3.3534,3.3479,3.348,3.3574,3.3577,3.3579,3.3635,0,0,0,0,0,0,3.3525,3.3527,3.3544,3.3531,3.3532,3.3564,3.3519,3.3514,3.3518,3.3513,3.3503,3.3499,3.3481,3.3506,3.3509,3.3534,3.3481,3.3571,3.3575,3.3579,3.3631,3.364,3.3647,0,0,0,0,0,3.3524,3.356,3.3545,3.3547,3.3552,3.3565,3.3566,3.3544,3.352,3.3536,3.3525,3.35,3.353,3.3509,3.3512,3.3538,3.357,3.3574,3.3578,3.3627,3.3638,3.3647,0,0,0,0,0,0,3.3577,3.3558,3.3541,3.3574,3.3572,3.3557,3.3577,3.3555,3.356,3.3555,3.3527,3.3525,3.3554,3.3549,3.3525,3.3579,3.3546,3.3551,3.3582,3.3592,3.36,3.3601,3.3482,0,0,0,0,0,3.3592,3.3605,3.3588,3.3619,3.3618,3.3598,3.3603,3.3586,3.3583,3.3581,3.3571,3.3569,3.3578,3.3585,3.3592,3.363,3.3627,3.3649,3.3657,3.3664,3.3669,3.3688,3.3698,3.3595,3.3594,3.3594,0,0,3.3624,3.3616,3.3625,3.3629,3.3625,3.3639,3.3597,3.3614,3.3623,3.3584,3.3607,3.36,3.3595,3.3627,3.364,3.3623,3.3696,3.3669,3.3675,3.3676,3.3693,3.3703,3.3712,3.3597,3.3597,3.3596,0,0,3.369,3.3685,3.3709,3.3706,3.3701,3.3687,3.3693,3.3682,3.3675,3.3698,3.3668,3.368,3.3696,3.3694,3.3695,3.376,3.3737,3.3763,3.3805,3.3824,3.3832,3.3839,3.3862,3.3871,3.3768,3.3768,3.3768,0,3.373,3.375,3.3725,3.3743,3.3746,3.371,3.3735,3.3734,3.3731,3.3734,3.3714,3.3734,3.3728,3.3759,3.3775,3.3777,3.3783,3.3764,3.3833,3.384,3.3846,3.3868,3.3877,3.3771,3.3771,3.377,3.377,0,3.38,3.3814,3.3835,3.3833,3.3838,3.3859,3.3838,3.3846,3.3829,3.3817,3.384,3.3832,3.3837,3.3843,3.3827,3.3872,3.3861,3.3838,3.3804,3.386,3.388,3.3888,3.3776,3.3775,3.3774,3.3773,0,0,3.3898,3.3882,3.3891,3.3889,3.3881,3.3891,3.3911,3.3916,3.3923,3.3923,3.3939,3.3953,3.3932,3.3933,3.3916,3.3933,3.3984,3.3907,3.3907,3.3922,3.4033,3.4051,3.4061,3.3969,3.3971,3.3972,3.4034,0,3.3961,3.3994,3.3972,3.4009,3.4021,3.3988,3.4005,3.4002,3.3991,3.4001,3.3989,3.4,3.397,3.3971,3.3986,3.3975,3.4006,3.397,3.3984,3.3985,3.3986,3.4071,3.409,3.4149,3.4041,3.4043,3.4044,0,3.4038,3.4041,3.4079,3.4067,3.4072,3.4088,3.409,3.4099,3.4095,3.4086,3.4088,3.4066,3.4085,3.4052,3.4077,3.4053,3.4057,3.4053,3.4054,3.4055,3.4018,3.4074,3.4167,3.4176,3.4056,3.4055,3.4054,0,3.4106,3.4119,3.4143,3.4143,3.4131,3.4143,3.4138,3.4132,3.4136,3.4139,3.4141,3.4146,3.4148,3.4153,3.4133,3.411,3.4161,3.4126,3.4155,3.4155,3.4167,3.4167,3.4262,3.417,3.417,3.417,3.417,0,3.4178,3.4202,3.4173,3.4188,3.4215,3.419,3.4217,3.4208,3.4203,3.4216,3.4188,3.42,3.4173,3.4184,3.4168,3.4192,3.4193,3.4187,3.4183,3.419,3.419,3.4192,3.4188,3.4172,3.4172,3.4171,3.4171,0,3.4258,3.424,3.4264,3.425,3.4247,3.4267,3.4256,3.4269,3.4256,3.4273,3.4276,3.4256,3.4267,3.4247,3.4255,3.4245,3.4278,3.4268,3.428,3.4277,3.4307,3.4304,3.4407,3.4419,3.4319,3.432,3.4321,0,3.4305,3.4323,3.4311,3.4318,3.4315,3.4326,3.433,3.4306,3.4311,3.4308,3.4321,3.4329,3.4334,3.4352,3.4339,3.4345,3.4335,3.437,3.4335,3.4342,3.4335,3.4334,3.4336,3.4377,3.4378,3.4379,3.438,0,3.4391,3.4381,3.4388,3.4392,3.4397,3.4399,3.4399,3.4406,3.4381,3.4389,3.4399,3.4403,3.441,3.4419,3.4422,3.4417,3.4395,3.4391,3.4398,3.4406,3.4412,3.4409,3.4299,3.4389,3.4388,3.4387,3.4387,3.4387,3.4456,3.4471,3.4464,3.4473,3.447,3.4471,3.4483,3.4472,3.448,3.4484,3.4469,3.4483,3.4478,3.4479,3.4477,3.4488,3.4472,3.4482,3.4485,3.4488,3.4492,3.441,3.4488,3.4488,3.4488,3.4487,3.4487,0,3.454,3.4535,3.4543,3.4543,3.455,3.4528,3.4527,3.4534,3.4547,3.4544,3.4549,3.4561,3.4569,3.4556,3.4562,3.4573,3.4563,3.4575,3.4574,3.4574,3.4506,3.4499,3.4583,3.4583,3.4583,3.4583,3.4583,3.4583,3.4585,3.4608,3.4597,3.4619,3.4613,3.4626,3.4627,3.4627,3.4625,3.4639,3.4646,3.4637,3.4631,3.4636,3.4642,3.4638,3.4642,3.4658,3.4651,3.4588,3.4578,3.4569,3.4563,3.4659,3.4659,3.4717,3.4718,3.4718]}]]